EN

Hourly Weather Gogolevo

Today, 18 May, Tuesday

Time Temperature Precipitation Wind Pressure Humidity
00:00 +12°C° 0 mm 2 mps 749 mmHg 81%
01:00 +12°C° 0 mm 1 mps 749 mmHg 84%
02:00 +12°C° 0 mm 1 mps 749 mmHg 83%
03:00 +12°C° 0 mm 1 mps 749 mmHg 83%
04:00 +12°C° 0 mm 1 mps 749 mmHg 83%
05:00 +12°C° 0 mm 1 mps 749 mmHg 83%
06:00 +13°C° 0 mm 1 mps 749 mmHg 83%
07:00 +13°C° 0 mm 2 mps 749 mmHg 83%
08:00 +14°C° 0 mm 2 mps 749 mmHg 80%
09:00 +14°C° 0 mm 3 mps 750 mmHg 77%
10:00 +16°C° 0 mm 3 mps 750 mmHg 73%
11:00 +15°C° 0.1 mm 4 mps 750 mmHg 72%
12:00 +17°C° 0.1 mm 4 mps 750 mmHg 71%
13:00 +16°C° 0.1 mm 5 mps 750 mmHg 70%
14:00 +15°C° 0 mm 5 mps 750 mmHg 72%
15:00 +14°C° 0 mm 6 mps 750 mmHg 74%
16:00 +13°C° 0 mm 6 mps 751 mmHg 75%
17:00 +11°C° 0 mm 6 mps 751 mmHg 79%
18:00 +10°C° 0 mm 5 mps 751 mmHg 83%
19:00 +9°C° 0 mm 5 mps 751 mmHg 87%
20:00 +8°C° 0 mm 5 mps 751 mmHg 89%
21:00 +8°C° 0 mm 5 mps 751 mmHg 90%
22:00 +8°C° 0 mm 5 mps 752 mmHg 91%
23:00 +8°C° 0 mm 5 mps 752 mmHg 90%

Tomorrow, 19 May, Wednesday

Time Temperature Precipitation Wind Pressure Humidity
00:00 +8°C° 0 mm 5 mps 752 mmHg 89%
01:00 +8°C° 0 mm 5 mps 752 mmHg 87%
02:00 +8°C° 0 mm 4 mps 751 mmHg 88%
03:00 +8°C° 0 mm 4 mps 751 mmHg 89%
04:00 +8°C° 0 mm 4 mps 751 mmHg 89%
05:00 +10°C° 0 mm 4 mps 752 mmHg 88%
06:00 +9°C° 0 mm 5 mps 752 mmHg 87%
07:00 +9°C° 0 mm 5 mps 752 mmHg 85%
08:00 +10°C° 0 mm 6 mps 752 mmHg 83%
09:00 +11°C° 0 mm 6 mps 752 mmHg 80%
10:00 +11°C° 0 mm 6 mps 752 mmHg 77%
11:00 +11°C° 0.1 mm 6 mps 752 mmHg 78%
12:00 +11°C° 0.1 mm 6 mps 753 mmHg 78%
13:00 +11°C° 0.1 mm 6 mps 753 mmHg 79%
14:00 +10°C° 0.2 mm 6 mps 753 mmHg 81%
15:00 +10°C° 0.2 mm 5 mps 753 mmHg 84%
16:00 +9°C° 0.2 mm 5 mps 754 mmHg 87%
17:00 +8°C° 0.1 mm 4 mps 754 mmHg 87%
18:00 +8°C° 0.1 mm 4 mps 754 mmHg 88%
19:00 +9°C° 0.1 mm 3 mps 754 mmHg 89%
20:00 +7°C° 0 mm 4 mps 754 mmHg 89%
21:00 +7°C° 0 mm 4 mps 754 mmHg 90%
22:00 +6°C° 0 mm 4 mps 755 mmHg 91%
23:00 +6°C° 0 mm 4 mps 755 mmHg 91%

Day after tomorrow, 20 May, Thursday

Time Temperature Precipitation Wind Pressure Humidity
00:00 +6°C° 0 mm 4 mps 755 mmHg 92%
01:00 +6°C° 0 mm 4 mps 755 mmHg 92%
02:00 +6°C° 0 mm 4 mps 755 mmHg 93%
03:00 +6°C° 0 mm 4 mps 755 mmHg 93%
04:00 +6°C° 0 mm 5 mps 755 mmHg 93%
05:00 +7°C° 0 mm 5 mps 755 mmHg 88%
06:00 +9°C° 0 mm 5 mps 756 mmHg 83%
07:00 +10°C° 0 mm 6 mps 756 mmHg 78%
08:00 +12°C° 0 mm 5 mps 756 mmHg 75%
09:00 +12°C° 0 mm 5 mps 756 mmHg 71%
10:00 +13°C° 0 mm 5 mps 757 mmHg 68%
11:00 +13°C° 0 mm 5 mps 757 mmHg 67%
12:00 +13°C° 0 mm 5 mps 757 mmHg 66%
13:00 +14°C° 0 mm 5 mps 757 mmHg 64%
14:00 +13°C° 0 mm 6 mps 757 mmHg 66%
15:00 +13°C° 0 mm 6 mps 757 mmHg 68%
16:00 +11°C° 0 mm 6 mps 757 mmHg 71%
17:00 +10°C° 0 mm 6 mps 757 mmHg 72%
18:00 +9°C° 0 mm 5 mps 757 mmHg 74%
19:00 +8°C° 0 mm 5 mps 758 mmHg 76%
20:00 +7°C° 0 mm 5 mps 758 mmHg 79%
21:00 +6°C° 0 mm 5 mps 758 mmHg 82%
22:00 +5°C° 0 mm 5 mps 757 mmHg 85%
23:00 +5°C° 0 mm 5 mps 758 mmHg 85%

21 May, Friday

Time Temperature Precipitation Wind Pressure Humidity
00:00 +5°C° 0 mm 5 mps 758 mmHg 86%
01:00 +5°C° 0 mm 5 mps 758 mmHg 86%
02:00 +5°C° 0 mm 5 mps 758 mmHg 86%
03:00 +3°C° 0 mm 5 mps 758 mmHg 87%
04:00 +3°C° 0 mm 5 mps 758 mmHg 87%
05:00 +6°C° 0 mm 5 mps 758 mmHg 83%
06:00 +7°C° 0 mm 5 mps 758 mmHg 79%
07:00 +9°C° 0 mm 5 mps 758 mmHg 75%
08:00 +10°C° 0 mm 5 mps 757 mmHg 73%
09:00 +12°C° 0 mm 5 mps 757 mmHg 70%
10:00 +13°C° 0 mm 5 mps 757 mmHg 67%
11:00 +14°C° 0.2 mm 5 mps 757 mmHg 67%
12:00 +14°C° 0.2 mm 5 mps 756 mmHg 67%
13:00 +15°C° 0.2 mm 5 mps 756 mmHg 67%
14:00 +14°C° 0.3 mm 5 mps 756 mmHg 71%
15:00 +14°C° 0.3 mm 5 mps 756 mmHg 74%
16:00 +14°C° 0.3 mm 5 mps 755 mmHg 78%
17:00 +13°C° 0.1 mm 5 mps 755 mmHg 80%
18:00 +13°C° 0.1 mm 5 mps 754 mmHg 82%
19:00 +12°C° 0.1 mm 4 mps 754 mmHg 84%
20:00 +12°C° 0 mm 5 mps 754 mmHg 83%
21:00 +10°C° 0 mm 5 mps 753 mmHg 82%
22:00 +10°C° 0 mm 5 mps 753 mmHg 82%
23:00 +10°C° 0.1 mm 6 mps 752 mmHg 80%

22 May, Saturday

Time Temperature Precipitation Wind Pressure Humidity
00:00 +10°C° 0.1 mm 6 mps 751 mmHg 78%
01:00 +11°C° 0.1 mm 7 mps 751 mmHg 76%
02:00 +11°C° 0.1 mm 7 mps 751 mmHg 77%
03:00 +11°C° 0.1 mm 7 mps 751 mmHg 79%
04:00 +11°C° 0.1 mm 6 mps 750 mmHg 81%
05:00 +12°C° 0.1 mm 5 mps 750 mmHg 82%
06:00 +12°C° 0.1 mm 4 mps 751 mmHg 83%
07:00 +12°C° 0.1 mm 3 mps 751 mmHg 84%
08:00 +13°C° 0.1 mm 4 mps 750 mmHg 81%
09:00 +14°C° 0.1 mm 5 mps 750 mmHg 78%
10:00 +15°C° 0.1 mm 7 mps 750 mmHg 76%
11:00 +15°C° 0.1 mm 6 mps 750 mmHg 76%
12:00 +15°C° 0.1 mm 5 mps 750 mmHg 77%
13:00 +16°C° 0.1 mm 5 mps 750 mmHg 78%
14:00 +15°C° 0.6 mm 5 mps 749 mmHg 80%
15:00 +15°C° 0.6 mm 5 mps 749 mmHg 82%
16:00 +15°C° 0.6 mm 5 mps 748 mmHg 84%
17:00 +13°C° 1.4 mm 4 mps 748 mmHg 88%
18:00 +12°C° 1.4 mm 4 mps 749 mmHg 92%
19:00 +11°C° 1.4 mm 3 mps 749 mmHg 97%
20:00 +11°C° 0.2 mm 3 mps 749 mmHg 96%
21:00 +11°C° 0.2 mm 4 mps 749 mmHg 96%
22:00 +10°C° 0.2 mm 4 mps 749 mmHg 95%
23:00 +10°C° 0 mm 4 mps 749 mmHg 95%

23 May, Sunday

Time Temperature Precipitation Wind Pressure Humidity
00:00 +9°C° 0 mm 5 mps 749 mmHg 95%
01:00 +9°C° 0 mm 5 mps 749 mmHg 95%
02:00 +8°C° 0 mm 5 mps 749 mmHg 95%
03:00 +7°C° 0 mm 5 mps 750 mmHg 94%
04:00 +7°C° 0 mm 5 mps 750 mmHg 94%
05:00 +8°C° 0 mm 5 mps 750 mmHg 91%
06:00 +9°C° 0 mm 6 mps 750 mmHg 88%
07:00 +10°C° 0 mm 6 mps 751 mmHg 85%
08:00 +11°C° 0.2 mm 6 mps 751 mmHg 81%
09:00 +11°C° 0.2 mm 7 mps 751 mmHg 77%
10:00 +12°C° 0.2 mm 7 mps 752 mmHg 73%
11:00 +13°C° 0.1 mm 6 mps 752 mmHg 69%
12:00 +14°C° 0.1 mm 6 mps 752 mmHg 65%
13:00 +14°C° 0.1 mm 5 mps 752 mmHg 61%
14:00 +14°C° 0.1 mm 5 mps 753 mmHg 64%
15:00 +14°C° 0.1 mm 4 mps 753 mmHg 67%
16:00 +13°C° 0.1 mm 4 mps 753 mmHg 69%
17:00 +12°C° 0.1 mm 3 mps 753 mmHg 75%
18:00 +12°C° 0.1 mm 2 mps 754 mmHg 80%
19:00 +11°C° 0.1 mm 1 mps 754 mmHg 86%
20:00 +9°C° 0 mm 2 mps 754 mmHg 88%
21:00 +8°C° 0 mm 2 mps 755 mmHg 89%
22:00 +7°C° 0 mm 3 mps 755 mmHg 91%
23:00 +7°C° 0 mm 3 mps 755 mmHg 91%
Show more